星链-37520(STARLINK-37520)

导读

STARLINK-37520(NORAD编号69819)是美国SpaceX公司星链低轨通信星座的组网卫星,属于第二代星链系列,搭载激光星间链路,支持高速星间数据传输,单星可覆盖直径约80-100公里区域,为终端提供最高300Mbps下行速率、低于50ms时延的宽带通信服务。该卫星运行于近地轨道,在轨状态稳定,与星座内其他卫星协同,为全球偏远地区、航空海事等无地面网络覆盖场景提供互联网接入,是星链实现全球通信覆盖的组成单元之一。

基本信息
目录编号:
69819
目录名称:
STARLINK-37520
国际标识:
2026-154A
轨道中心:
EARTH
卫星名称:
星链-37520
卫星全名:
星链-37520(STARLINK-37520)
卫星状态:
在轨 (已飞行61 天)
发射日期:
2026-07-05 UTC
国别 :
美国 (US)
星等 :
--
轨道信息
数据来源 国际轨道数据
星历时间: 2026-09-04T09:36:29+0800
12小时前
查看轨道信息
半长轴: 6840.878km
偏心率: 0.0001365
轨道倾角: 53.161°
近地点辐角 46.981°
升交点赤经 48.654°
平近点角 313.131°
近地点: 461.807km
远地点: 463.675km
周期: 93.849分钟
每日圈数: 15.343874
详细信息
固有亮度:
5
最大亮度:
2.5
卫星平台:
Starlink V1.0
覆盖范围:
全球
运营商:
太空探索技术公司
运营商所在国:
美国
制造商(研发单位):
太空探索技术公司
制造商所在国:
美国
使用方式:
暂无
卫星简介
Starlink 计划是 SpaceX 推出的全球卫星互联网项目,通过发射低轨道卫星,为全球尤其是偏远地区提供高速、低延迟的互联网服务。自 2019 年起,Starlink 已部署数千颗卫星,旨在缩小全球数字鸿沟,推动互联网普及。该项目还为军事、航空等行业提供通信支持,带来广泛经济效益。
2D轨道图
3D轨道图
轨道高度分析图
轨道倾角分析图
轨道综合分析图
查看轨道综合分析图